星链-36893(STARLINK-36893)

导读

STARLINK-36893(NORAD编号68112)是SpaceX星链星座中的一颗通信卫星,隶属于星链第二代组网的卫星批次,属于近地轨道卫星,原运行于约550公里高度的近地轨道。 2026年SpaceX启动降低4400颗星链卫星轨道高度的安全计划,该卫星大概率在此调整范围内,轨道高度将降至480公里,此举可缩短故障卫星再入大气层销毁时间,降低太空碰撞与碎片风险。 该卫星相关轨道参数公开可查,可用于卫星轨道仿真与近地轨道安全研究,为全球提供低延迟宽带互联网通信服务。

基本信息
目录编号:
68112
目录名称:
STARLINK-36893
国际标识:
2026-044M
轨道中心:
EARTH
卫星名称:
星链-36893
卫星全名:
星链-36893(STARLINK-36893)
卫星状态:
在轨 (已飞行142 天)
发射日期:
2026-03-08 UTC
国别 :
美国 (US)
星等 :
--
轨道信息
数据来源 国际轨道数据
星历时间: 2026-07-27T05:06:51+0800
1天前
查看轨道信息
半长轴: 6843.634km
偏心率: 0.0001748
轨道倾角: 97.283°
近地点辐角 90.735°
升交点赤经 167.611°
平近点角 269.409°
近地点: 464.3km
远地点: 466.694km
周期: 93.905分钟
每日圈数: 15.334606
详细信息
固有亮度:
5
最大亮度:
2.5
卫星平台:
Starlink V1.0
覆盖范围:
全球
运营商:
太空探索技术公司
运营商所在国:
美国
制造商(研发单位):
太空探索技术公司
制造商所在国:
美国
使用方式:
暂无
卫星简介
Starlink 计划是 SpaceX 推出的全球卫星互联网项目,通过发射低轨道卫星,为全球尤其是偏远地区提供高速、低延迟的互联网服务。自 2019 年起,Starlink 已部署数千颗卫星,旨在缩小全球数字鸿沟,推动互联网普及。该项目还为军事、航空等行业提供通信支持,带来广泛经济效益。
2D轨道图
3D轨道图
轨道高度分析图
轨道倾角分析图
轨道综合分析图
查看轨道综合分析图